Location: Newark
(48.3706°N, 17.1868°E)
Time: 11:31:26
(UTC+00:00)

OTV 5 (USA 277) - Visible Passes

Search period start: 15 October 2019 00:00
Search period end: 25 October 2019 00:00
Orbit: 310 x 324 km, 54.5° (Epoch: 08 October)

Date Brightness Start Highest point End Pass type
(mag) Time Alt. Az. Time Alt. Az. Time Alt. Az.
15 Oct ? 03:53:05 19° NW 03:54:40 37° NNE 03:57:15 10° E visible
16 Oct ? 02:36:26 13° ENE 02:36:26 13° ENE 02:36:57 10° ENE visible
16 Oct ? 04:07:19 17° NW 04:09:19 68° NNE 04:12:02 10° ESE visible
17 Oct ? 02:50:43 20° ENE 02:50:43 20° ENE 02:51:54 10° E visible
17 Oct ? 04:21:37 14° WNW 04:23:51 53° SW 04:26:32 10° SE visible
18 Oct ? 03:05:07 30° E 03:05:07 30° E 03:06:47 10° E visible
18 Oct ? 04:36:01 10° W 04:38:17 23° SW 04:40:31 10° SSE visible
19 Oct ? 03:19:36 38° SE 03:19:36 38° SE 03:21:26 10° SE visible
20 Oct ? 03:34:13 24° S 03:34:13 24° S 03:35:44 10° SSE visible
21 Oct ? 03:48:58 11° SSW 03:48:58 11° SSW 03:49:17 10° S visible
